Observer details:
104 San Marcello Pistoiese.  Observers P. Bacci, M. Maestripieri.  Measurers
    P. Bacci, L. Tesi, G. Fagioli.  0.60-m F4 Reflector + CCD.
246 Klet Observatory-KLENOT.  Observers M. Tichy, J. Ticha, M. Janda, M.
    Honkova.  Measurer M. Tichy.  1.06-m f/2.7 Reflector + 2048x2048 CCD.
595 Farra d'Isonzo.  Observer E. Pettarin.  0.61-m f/4.5 reflector + CCD.
958 Observatoire de Dax.  Observers P. Dupouy, J. Laborde.  Measurer P.
    Dupouy.  0.30-m f/5 Schmidt-Cassegrain + CMO.
C40 Kuban State University Astrophysical Observatory.  Observers A. Ivanov, A.
    Barcov, V. Ivanov, V. Lysenko, N. Yakovenko, N. Ivanova, N. Gorbunov, G.
    Kurbatov, P. Shchukin, V. Roshchupko.  Measurer A. Ivanov.  0.51-m f/8
    reflector + CCD.
C77 Bernezzo Observatory.  Observer A. Mantero.  0.25-m f/4.0 reflector + CCD.
E23 Arcadia.  Observer A. Hidas.  0.35-m f/1.9 reflector + CCD.
F51 Pan-STARRS 1, Haleakala.  Observers J. Bulger, K. Chambers, T. Lowe, P.
    Minguez, A. Schultz, I. Smith.  Measurers S. Chastel, J. Fairlamb, M.
    Huber, Y. Ramanjooloo, R. Wainscoat, R. Weryk.  1.8-m Ritchey-Chretien +
    CCD.
G17 BAS Observatory, Scandicci.  Observer L. Grazzini.  0.20-m f/10 Schmidt-
    Cassegrain + CCD + f/6.3 focal reducer.
G34 Oberfrauendorf.  Observer T. Felber.  0.35-m f/6.3 Schmidt-Cassegrain +
    CCD.
G96 Mt. Lemmon Survey.  Observer A. R. Gibbs.  Measurers E. J. Christensen, D.
    Fay, J. B. Fazekas, D. C. Fuls, A. R. Gibbs, A. D. Grauer, H. Groeller, J.
    K. Hogan, R. A. Kowalski, S. M. Larson, G. J. Leonard, D. Rankin, R. L.
    Seaman, A. Serrano, F. C. Shelly, K. W. Wierzchos.  1.5-m reflector + 10K
    CCD.
H36 Sandlot Observatory, Scranton.  Observer G. Hug.  0.56-m f/4.8 reflector +
    CMO.
I93 St Pardon de Conques.  Observer F. Losse.  0.40-m f/3.7 reflector + CMO.
K51 Osservatorio del Celado, Castello Tesino.  Observer M. Campestrin.  0.80-m
    f/4 reflector + CCD.
K74 Muensterschwarzach Observatory, Schwarzach.  Observer C. Gerhard.  0.30-m
    f/3.75 reflector + CMO.
L01 Visnjan Observatory, Tican.  Observers K. Korlevic, I. Lyon.  Measurer K.
    Korlevic.  1.0-m f/2.9 reflector + CCD.
L04 ROASTERR-1 Observatory, Cluj-Napoca.  Observer L. Hudin.  0.3-m f/5
    reflector + CCD.
L38 Gartensternwarte Schafsweide, Sehlde.  Observer A. Opitz.  0.35-m f/5.2
    Newton + CMO.
L65 Bredenkamp Observatory, Bremen.  Observer H. Duin.  0.23-m f/6.3 reflector
    + CMO.
M28 Lesedi Telescope-SAAO Observatory, Sutherland.  Observers N. Erasmus, S.
    Potter, C. van Gend, S. Chandra, H. Worters.  Measurers T. Ngwane, N.
    Erasmus.  1.0-m f/8 Reflector + CCD.
M44 Al-Khatim Observatory, Abu Dhabi.  Observer M. Odeh.  0.36-m f/7.7 SC +
    CMO.
M49 IAS Remote Observatory, Hakos.  Observers D. Husar, M. Junius.  Measurer
    D. Husar.  0.25-m f/4.6 reflector + CMO.

Orbital elements:
2023 RH                                                  Earth MOID = 0.0087 AU
Epoch 2023 Sept. 13.0 TT = JDT 2460200.5                Veres                   
M 340.34582              (2000.0)            P               Q                  
n   0.43181422     Peri.  267.00879     +0.32271206     -0.94344788             
a   1.7335568      Node   163.53690     +0.93939761     +0.30945424             
e   0.6222254      Incl.   15.53774     +0.11571108     +0.11892928             
P   2.28           H   25.46          G   0.15           U   8                  
Residuals in seconds of arc
230903 F51  0.1+  0.1-    230906 246  0.4+  0.4-    230906 I93  0.2+  0.1-
230903 F51  0.0   0.0     230906 246  0.0   0.7-    230906 958  0.7+  1.1-
230905 F51  0.0   0.0     230906 246  0.4+  0.1+    230906 K74  0.3-  0.1+
230905 F51  0.1+  0.1-    230906 246  0.2-  0.3-    230906 595  0.2-  0.2-
230905 F51  0.0   0.1+    230906 246  0.5+  0.1-    230906 I93  0.0   0.2-
230905 F51  0.0   0.2-    230906 246  0.1+  0.6-    230906 L38  0.4+  0.7-
230906 G96  0.1-  0.2-    230906 G17  0.5+  0.3+    230906 K74  0.0   0.2-
230906 G96  0.0   0.2-    230906 G34  0.2+  0.4-    230906 L38  0.2+  0.8-
230906 G96  0.0   0.3-    230906 L01  0.5-  0.2+    230906 958  0.5+  1.3-
230906 G96  0.0   0.3-    230906 L01  0.5-  0.2+    230906 K74  0.4+  0.3-
230906 G96  0.0   0.0     230906 L01  0.3-  0.2-    230906 595  0.2-  0.1-
230906 G96  0.0   0.0     230906 L01  0.2-  0.1-    230906 L38  0.1-  0.3-
230906 G96  0.1+  0.0     230906 L01  0.1-  0.4-    230906 I93  0.1+  0.1+
230906 G96  0.1-  0.0     230906 G17  0.2-  0.2+    230906 K74  0.1+  0.1-
230906 H36  0.5+  0.2+    230906 C40  0.1-  0.1+    230906 K74  0.2+  0.1-
230906 H36  0.5+  0.7-    230906 C40  0.0   0.1-    230906 K74  0.4+  0.1-
230906 H36  0.2+  0.2+    230906 G34  0.6+  0.1+    230906 K74  0.0   0.2+
230906 E23  0.0   0.2+    230906 C40  0.4+  0.1-    230906 L38  0.2+  0.3-
230906 E23  0.1+  0.2+    230906 G34  0.1-  1.2-    230906 L65  0.1-  0.5+
230906 E23  0.3+  0.1+    230906 L04  0.1+  0.9-    230906 L38  0.1-  0.7-
230906 M44  0.7+  0.1-    230906 K51  0.2+  0.2+    230906 L65  0.2+  0.5+
230906 M44  0.3-  1.7-    230906 K51  0.0   0.2+    230906 L65  0.1+  0.0
230906 M44  1.1-  1.2-    230906 L04  0.4-  1.0-    230906 958  0.2+  0.7-
230906 M49  0.1-  0.1-    230906 K51  0.1+  0.1-    230906 958  0.5-  0.5-
230906 M49  0.0   0.5-    230906 C77  1.2-  0.4+    230906 958  0.7-  0.0
230906 M49  0.1-  0.1+    230906 L04  0.3-  0.8-    230906 104  0.2-  0.2-
230906 M28  1.3-  0.9+    230906 C77  0.1+  0.0     230906 104  0.1+  0.1+
230906 G17  0.3+  0.0     230906 C77  0.2+  0.2-    230906 104  0.3+  0.1-
230906 M28  1.4-  0.4+    230906 958  0.7-  0.6+
230906 M28  1.5-  0.3+    230906 595  0.2-  0.2-

Ephemeris:
2023 RH                  a,e,i = 1.73, 0.62, 16                  q = 0.6549
Date    TT    R. A. (2000) Decl.     Delta      r    Elong.  Phase     V
2023 08 07    22 26 38.9 +13 11 17   0.3846  1.3448   144.1    26.3    25.2
...
2023 08 22    22 27 14.0 +13 30 51   0.2006  1.1948   153.7    22.0    23.4
...
2023 08 30    22 24 42.9 +11 30 57   0.1091  1.1125   159.1    18.9    21.8
...
2023 09 05    22 16 21.9 +02 58 37   0.04299 1.0503   166.4    13.1    19.5
2023 09 06    22 11 52.5 -01 51 57   0.03240 1.0399   167.8    11.8    18.8
2023 09 07    22 03 05.9 -11 14 08   0.02230 1.0295   165.1    14.6    18.1
...
2023 09 13    10 44 12.7 -29 57 34   0.04807 0.9676    35.2   143.1    26.1
...
2023 09 21    10 35 47.5 -21 15 22   0.1367  0.8870    28.8   146.9    28.8
...
2023 10 06    10 42 07.1 -17 05 10   0.3166  0.7522    32.4   134.5    28.5

M. P. C. Staff               (C) Copyright 2023 MPC           M.P.E.C. 2023-R27





More information about the Iaude mailing list